Change the Weather History Date:

Tuesday, May 22, 2012

  Actual Average Record
Temperature  
Mean Temperature 71 °F 57 °F  
Max Temperature 87 °F 70 °F 96 °F (1980)
Min Temperature 55 °F 44 °F 25 °F (1963)
Degree Days  
Heating Degree Days 0 9  
Month to date heating degree days 153 268  
Since 1 July heating degree days 7379 9346  
Cooling Degree Days 6 1  
Month to date cooling degree days 22 7  
Year to date cooling degree days 22 8  
Growing Degree Days 20 (Base 50)    
Moisture  
Dew Point 53 °F    
Average Humidity 59    
Maximum Humidity 83    
Minimum Humidity 34    
Precipitation  
Precipitation 0.02 in 0.09 in 1.99 in (2010)
Month to date precipitation 1.00 1.81  
Year to date precipitation 5.09 4.85  
Snow  
Snow 0.00 in 0.00 in - ()
Month to date snowfall 0.0 0.1  
Since 1 July snowfall 22.8 47.4  
Snow Depth 0.00 in    
Sea Level Pressure  
Sea Level Pressure 29.55 in    
Wind  
Wind Speed 13 mph (SSE)    
Max Wind Speed 37 mph    
Max Gust Speed 46 mph    
Visibility 10 miles    
Events Rain , Thunderstorm    
T = Trace of Precipitation, MM = Missing Value Source: NWS Daily Summary

Daily Weather History Graph

Daily Weather History Graph

Search for Another Location

Airport or City:

Trip Planner

Search our weather history database for the weather conditions in past years. The results will help you decide how hot, cold, wet, or windy it might be!

Date:

Astronomy

May. 22, 2012 Rise Set
Actual Time 5:41 AM CDT 9:10 PM CDT
Civil Twilight 5:03 AM CDT 9:48 PM CDT
Nautical Twilight 4:12 AM CDT 10:39 PM CDT
Astronomical Twilight 3:05 AM CDT 11:47 PM CDT
Moon 6:51 AM CDT (5/22) 10:50 PM CDT (5/22)
Length of Visible Light 16h 45m
Length of Day
15h 28m
Waxing Crescent, 3% of the Moon is Illuminated
May 22
Waxing Crescent
May 28
First Quarter
Jun 4
Full
Jun 11
Last Quarter
Jun 19
New

Hourly Weather History & Observations

Time (CDT) Temp. Heat Index Dew Point Humidity Pressure Visibility Wind Dir Wind Speed Gust Speed Precip Events Conditions
12:53 AM 66.9 °F - 45.0 °F 45% 29.80 in 10.0 mi South 18.4 mph 27.6 mph N/A   Scattered Clouds
1:53 AM 66.0 °F - 45.0 °F 47% 29.79 in 10.0 mi South 15.0 mph - N/A   Mostly Cloudy
2:53 AM 66.0 °F - 45.0 °F 47% 29.77 in 10.0 mi South 13.8 mph - N/A   Partly Cloudy
3:53 AM 62.1 °F - 50.0 °F 65% 29.76 in 10.0 mi SSW 5.8 mph - 0.00 in   Overcast
4:53 AM 59.0 °F - 53.1 °F 81% 29.74 in 10.0 mi SSE 8.1 mph - 0.00 in   Scattered Clouds
5:53 AM 57.9 °F - 52.0 °F 81% 29.75 in 10.0 mi SE 8.1 mph - N/A   Mostly Cloudy
6:53 AM 55.9 °F - 50.0 °F 80% 29.74 in 10.0 mi SE 5.8 mph - N/A   Scattered Clouds
7:53 AM 61.0 °F - 51.1 °F 70% 29.73 in 10.0 mi SSE 5.8 mph - N/A   Scattered Clouds
8:53 AM 66.0 °F - 50.0 °F 56% 29.71 in 10.0 mi South 9.2 mph - N/A   Mostly Cloudy
9:53 AM 66.9 °F - 50.0 °F 54% 29.70 in 10.0 mi SW 6.9 mph - N/A   Overcast
10:53 AM 68.0 °F - 51.1 °F 55% 29.67 in 10.0 mi Calm Calm - 0.00 in   Mostly Cloudy
11:53 AM 71.1 °F - 52.0 °F 51% 29.64 in 10.0 mi SSE 8.1 mph - N/A   Mostly Cloudy
12:53 PM 73.9 °F - 54.0 °F 50% 29.62 in 10.0 mi SSE 10.4 mph - N/A   Overcast
1:53 PM 78.1 °F - 55.0 °F 45% 29.58 in 10.0 mi East 10.4 mph - N/A   Mostly Cloudy
2:53 PM 82.9 °F 82.0 °F 55.0 °F 38% 29.52 in 10.0 mi ESE 15.0 mph 20.7 mph N/A   Mostly Cloudy
3:53 PM 84.9 °F 83.3 °F 54.0 °F 34% 29.49 in 10.0 mi SE 17.3 mph - N/A   Overcast
4:53 PM 86.0 °F 84.7 °F 55.9 °F 36% 29.43 in 10.0 mi SE 13.8 mph - N/A   Overcast
5:53 PM 86.0 °F 84.9 °F 57.0 °F 37% 29.39 in 10.0 mi ESE 19.6 mph - N/A   Overcast
6:53 PM 84.9 °F 83.3 °F 54.0 °F 34% 29.38 in 10.0 mi SE 25.3 mph 31.1 mph N/A   Overcast
7:53 PM 84.0 °F 82.9 °F 55.0 °F 37% 29.38 in 10.0 mi SSE 18.4 mph - N/A   Overcast
8:53 PM 81.0 °F 80.7 °F 55.0 °F 41% 29.35 in 10.0 mi SE 12.7 mph - N/A   Overcast
9:53 PM 79.0 °F - 54.0 °F 42% 29.30 in 10.0 mi SE 17.3 mph - N/A   Mostly Cloudy
10:34 PM 78.8 °F - 55.4 °F 44% 29.29 in 10.0 mi SE 18.4 mph 27.6 mph N/A Thunderstorm Thunderstorm
10:53 PM 78.1 °F - 57.0 °F 48% 29.33 in 8.0 mi South 38.0 mph 46.0 mph 0.00 in Rain , Thunderstorm Light Thunderstorms and Rain
11:00 PM 73.4 °F - 57.2 °F 57% 29.35 in 6.0 mi South 21.9 mph 46.0 mph N/A Rain , Thunderstorm Light Thunderstorms and Rain
11:28 PM 71.6 °F - 60.8 °F 69% 29.29 in 10.0 mi SSE 28.8 mph 40.3 mph N/A Rain Light Rain
11:53 PM 72.0 °F - 61.0 °F 68% 29.32 in 10.0 mi SSE 19.6 mph 28.8 mph N/A   Mostly Cloudy